FENGYUN 1C DEB

Satellite information

Favourite Embed

Satellite Type and Status

DEBRISIN ORBIT

Key statistics

Satellite FENGYUN 1C DEB at a glance.

Uptime

9555

Days in orbit

Revolutions

≈ 14.2

Per day

Orbit

SSO

Sun Synchronous Orbit

Inclination

98.8

Latest

Satellite identification and parameters

Extended collection of information and parameters for FENGYUN 1C DEB.

Object identification

Identified? True

Debris? True

Object name: FENGYUN 1C DEB

International designator: 1999-025DRZ

Object number (NORAD): 36152

Object ID (CCSDS): 36152

Country: PEOPLES REPUBLIC OF CHINA (PRC)

Current information (Y/N): Y

RCS size: SMALL

Orbital parameters

Period: 101.664 minutes

Inclination: 98.7665 deg

SMA: 7215.592 km

Apoapsis: 876.078 km

Periapsis: 798.836 km

RAAN: 227.5542 deg

Eccentricy: 0.0053524

Argument of periapsis: 315.6629 deg

Mean anomaly: 44.0265 deg

Mean motion: 14.16429036 rev/day

Mean motion (dot): 0.00001246 rev/day2

B* drag term: 0.0006397 1/REarth

Two-line elements (TLE)

Creation date: July 4, 2025, 6:39 p.m.

Reference frame: TEME

Reference center: EARTH

Epoch: July 4, 2025, 7:54 a.m. UTC

TLE line 0: 0 FENGYUN 1C DEB

TLE line 1: 1 36152U 99025DRZ 25185.32984479 .00001246 00000-0 63970-3 0 9990

TLE line 2: 2 36152 98.7665 227.5542 0053524 315.6629 44.0265 14.16429036618718

Live tracking on map

Real-time ground track for satellite FENGYUN 1C DEB.

In-orbit conjunctions

A list of the most updated potential collisions computed for object FENGYUN 1C DEB.

Target Orbit TCA Probability of collision Miss distance Type
DELTA 1 R/B(1) LEO 2025-05-02 05:54:59 0.000157874 627.0 (m) ROCKET BODY
METEOR 2-17 DEB LEO 2024-11-13 20:39:40 0.0002387915 206.0 (m) DEBRIS
METEOR 2-8 DEB LEO 2024-07-03 23:07:54 0.0001334058 77.0 (m) DEBRIS

Associated space launch

Chinese polar orbiting meteorological satellite

FENGYUN 1C DEB was lifted into orbit during the mission ‘Long March 4B | Feng Yun 1C’, on board a Long March 4B space rocket.

The launch took place on May 10, 1999, 1:33 a.m. from Launch Complex 7.

For more information about the launch, click the button.

Launch to space Long March 4B | Feng Yun 1C
Long March 4B | Feng Yun 1C

Agency: N/A

Status: Launch Successful

Launch date: May 10, 1999, 1:33 a.m. UTC

Rocket: Long March 4B

Launch pad: Launch Complex 7

Location: Taiyuan Satellite Launch Center, People's Republic of China

...

Latest news about this satellite

There are no fresh news available about this satellite. Check back as we update our databases every day.


Newsletter sign-up

Weekly statistics, charts and insights to help you stay on top of the space industry.